Weather History for Rensselaer, IN

Change the Weather History Date:

Friday, February 15, 2013

  Actual Average (KVPZ) Record (KVPZ)
Temperature  
Mean Temperature 30 °F 28 °F  
Max Temperature 33 °F 35 °F 55 °F (1999)
Min Temperature 26 °F 20 °F 0 °F (2007)
Degree Days  
Heating Degree Days 36 38  
Month to date heating degree days 590  
Since 1 July heating degree days 4275  
Cooling Degree Days 0 0  
Month to date cooling degree days 0  
Year to date cooling degree days 0  
Moisture  
Dew Point 22 °F    
Average Humidity 72    
Maximum Humidity 93    
Minimum Humidity 38    
Precipitation  
Precipitation 0.00 in 0.04 in 0.28 in (2005)
Month to date precipitation 0.73  
Year to date precipitation 2.48  
Sea Level Pressure  
Sea Level Pressure 30.10 in    
Wind  
Wind Speed 7 mph (WNW)    
Max Wind Speed 14 mph    
Max Gust Speed 18 mph    
Visibility 9 miles    
Events Snow    
T = Trace of Precipitation, MM = Missing Value Source: NWS Daily Summary

Daily Weather History Graph

Daily Weather History Graph

Search for Another Location

Airport:

Trip Planner

Search our weather history database for the weather conditions in past years. The results will help you decide how hot, cold, wet, or windy it might be!

Date:

Astronomy

Feb. 15, 2013 Rise Set
Actual Time 6:42 AM CST 5:23 PM CST
Civil Twilight 6:14 AM CST 5:51 PM CST
Nautical Twilight 5:42 AM CST 6:23 PM CST
Astronomical Twilight 5:10 AM CST 6:55 PM CST
Moon 9:15 AM CST (2/15) 11:27 PM CST (2/15)
Length of Visible Light 11h 37m
Length of Day
10h 40m
Waxing Crescent, 30% of the Moon is Illuminated
Feb 15
Waxing Crescent
Feb 17
First Quarter
Feb 25
Full
Mar 4
Last Quarter
Mar 11
New

Hourly Weather History & Observations

Time (CST) Temp. Windchill Dew Point Humidity Pressure Visibility Wind Dir Wind Speed Gust Speed Precip Events Conditions
12:15 AM 33.8 °F 27.7 °F 28.4 °F 81% 29.98 in 10.0 mi WNW 6.9 mph - N/A   Overcast
12:35 AM 33.8 °F 28.6 °F 28.4 °F 81% 29.99 in 10.0 mi West 5.8 mph - N/A   Overcast
12:55 AM 32.0 °F 28.7 °F 28.4 °F 87% 29.99 in 10.0 mi West 3.5 mph - N/A   Overcast
1:15 AM 32.0 °F 28.7 °F 28.4 °F 87% 29.99 in 10.0 mi West 3.5 mph - N/A   Overcast
1:35 AM 32.0 °F 27.5 °F 28.4 °F 87% 29.99 in 10.0 mi West 4.6 mph - N/A   Overcast
1:55 AM 32.0 °F 28.7 °F 28.4 °F 87% 29.99 in 10.0 mi West 3.5 mph - N/A   Overcast
2:15 AM 32.0 °F 28.7 °F 28.4 °F 87% 29.99 in 10.0 mi WNW 3.5 mph - N/A   Overcast
2:35 AM 32.0 °F - 28.4 °F 87% 29.99 in 10.0 mi Calm Calm - N/A   Overcast
2:55 AM 32.0 °F - 28.4 °F 87% 29.99 in 10.0 mi Calm Calm - N/A   Overcast
3:15 AM 32.0 °F 28.7 °F 28.4 °F 87% 29.99 in 10.0 mi West 3.5 mph - N/A   Overcast
3:35 AM 32.0 °F 28.7 °F 30.2 °F 93% 30.00 in 10.0 mi West 3.5 mph - N/A   Overcast
3:55 AM 32.0 °F 26.4 °F 30.2 °F 93% 30.01 in 10.0 mi West 5.8 mph - N/A   Overcast
4:15 AM 32.0 °F 27.5 °F 30.2 °F 93% 30.01 in 10.0 mi West 4.6 mph - N/A   Overcast
4:35 AM 32.0 °F 25.6 °F 30.2 °F 93% 30.02 in 10.0 mi West 6.9 mph - N/A   Mostly Cloudy
4:55 AM 32.0 °F 24.8 °F 30.2 °F 93% 30.03 in 10.0 mi WNW 8.1 mph - N/A Snow Light Snow
5:15 AM 32.0 °F 25.6 °F 30.2 °F 93% 30.03 in 7.0 mi WNW 6.9 mph - N/A Snow Light Snow
5:35 AM 32.0 °F 26.4 °F 30.2 °F 93% 30.03 in 10.0 mi WNW 5.8 mph - N/A   Overcast
5:55 AM 32.0 °F 27.5 °F 30.2 °F 93% 30.04 in 10.0 mi WNW 4.6 mph - N/A   Overcast
6:15 AM 32.0 °F 26.4 °F 30.2 °F 93% 30.05 in 10.0 mi West 5.8 mph - N/A   Overcast
6:35 AM 32.0 °F 25.6 °F 30.2 °F 93% 30.05 in 7.0 mi WNW 6.9 mph - N/A Snow Light Snow
6:55 AM 32.0 °F 26.4 °F 30.2 °F 93% 30.06 in 10.0 mi WNW 5.8 mph - N/A   Overcast
7:15 AM 32.0 °F 25.6 °F 30.2 °F 93% 30.07 in 10.0 mi NW 6.9 mph - N/A Snow Light Snow
7:35 AM 32.0 °F 23.6 °F 28.4 °F 87% 30.08 in 7.0 mi North 10.4 mph - N/A Snow Light Snow
7:55 AM 32.0 °F 24.2 °F 28.4 °F 87% 30.09 in 3.0 mi NNW 9.2 mph - N/A Snow Light Snow
8:15 AM 30.2 °F 19.8 °F 28.4 °F 93% 30.10 in 2.0 mi NNW 13.8 mph 18.4 mph N/A Snow Light Snow
8:35 AM 30.2 °F 20.2 °F 28.4 °F 93% 30.11 in 2.0 mi North 12.7 mph 17.3 mph N/A Snow Light Snow
8:55 AM 30.2 °F 20.8 °F 28.4 °F 93% 30.12 in 3.0 mi North 11.5 mph 18.4 mph N/A Snow Light Snow
9:15 AM 30.2 °F 21.3 °F 26.6 °F 86% 30.13 in 5.0 mi NNW 10.4 mph 18.4 mph N/A Snow Light Snow
9:35 AM 30.2 °F 21.3 °F 26.6 °F 86% 30.13 in 10.0 mi NNW 10.4 mph 16.1 mph N/A Snow Light Snow
9:55 AM 30.2 °F 20.2 °F 26.6 °F 86% 30.14 in 7.0 mi NNW 12.7 mph 17.3 mph N/A Snow Light Snow
10:15 AM 32.0 °F 23.6 °F 28.4 °F 87% 30.14 in 7.0 mi NNW 10.4 mph - N/A Snow Light Snow
10:35 AM 30.2 °F 21.9 °F 26.6 °F 86% 30.14 in 10.0 mi NNW 9.2 mph - N/A Snow Light Snow
10:55 AM 32.0 °F 25.6 °F 26.6 °F 80% 30.14 in 10.0 mi NW 6.9 mph - N/A   Overcast
11:15 AM 30.2 °F 20.2 °F 26.6 °F 86% 30.15 in 10.0 mi North 12.7 mph 16.1 mph N/A   Overcast
11:35 AM 30.2 °F 22.6 °F 23.0 °F 75% 30.15 in 10.0 mi North 8.1 mph - N/A   Overcast
12:15 PM 32.0 °F 23.6 °F 21.2 °F 64% 30.15 in 10.0 mi NNW 10.4 mph - N/A   Mostly Cloudy
12:55 PM 32.0 °F 23.0 °F 17.6 °F 55% 30.14 in 10.0 mi NNW 11.5 mph 16.1 mph N/A   Scattered Clouds
1:15 PM 32.0 °F 24.2 °F 17.6 °F 55% 30.14 in 10.0 mi NNW 9.2 mph - N/A   Scattered Clouds
1:35 PM 32.0 °F 24.2 °F 14.0 °F 48% 30.14 in 10.0 mi North 9.2 mph - N/A   Scattered Clouds
1:55 PM 32.0 °F 24.2 °F 14.0 °F 48% 30.14 in 10.0 mi NNW 9.2 mph - N/A   Scattered Clouds
2:15 PM 32.0 °F 27.5 °F 14.0 °F 48% 30.14 in 10.0 mi North 4.6 mph - N/A   Scattered Clouds
2:35 PM 32.0 °F 24.8 °F 14.0 °F 48% 30.14 in 10.0 mi North 8.1 mph - N/A   Scattered Clouds
2:55 PM 32.0 °F 24.8 °F 12.2 °F 44% 30.14 in 10.0 mi WNW 8.1 mph - N/A   Scattered Clouds
3:15 PM 32.0 °F 26.4 °F 12.2 °F 44% 30.15 in 10.0 mi WNW 5.8 mph - N/A   Scattered Clouds
3:35 PM 33.8 °F 27.7 °F 10.4 °F 38% 30.15 in 10.0 mi NW 6.9 mph - N/A   Clear
3:55 PM 32.0 °F 24.8 °F 10.4 °F 41% 30.15 in 10.0 mi NW 8.1 mph - N/A   Clear
4:15 PM 32.0 °F 24.8 °F 14.0 °F 48% 30.15 in 10.0 mi West 8.1 mph - N/A   Scattered Clouds
4:35 PM 32.0 °F 22.5 °F 12.2 °F 44% 30.15 in 10.0 mi WNW 12.7 mph - N/A   Scattered Clouds
4:55 PM 32.0 °F 22.1 °F 14.0 °F 48% 30.16 in 10.0 mi West 13.8 mph - N/A   Clear
5:15 PM 32.0 °F 24.2 °F 14.0 °F 48% 30.16 in 10.0 mi West 9.2 mph - N/A   Clear
5:35 PM 30.2 °F 24.3 °F 14.0 °F 51% 30.16 in 10.0 mi West 5.8 mph - N/A   Scattered Clouds
5:55 PM 30.2 °F 23.4 °F 15.8 °F 55% 30.17 in 10.0 mi West 6.9 mph - N/A   Scattered Clouds
6:15 PM 28.4 °F 22.2 °F 17.6 °F 64% 30.17 in 10.0 mi West 5.8 mph - N/A   Scattered Clouds
6:35 PM 28.4 °F 23.3 °F 17.6 °F 64% 30.17 in 10.0 mi West 4.6 mph - N/A   Mostly Cloudy
6:55 PM 30.2 °F 25.4 °F 17.6 °F 60% 30.17 in 10.0 mi West 4.6 mph - N/A   Mostly Cloudy
7:15 PM 30.2 °F 25.4 °F 17.6 °F 60% 30.17 in 10.0 mi West 4.6 mph - N/A   Mostly Cloudy
7:35 PM 28.4 °F 23.3 °F 17.6 °F 64% 30.17 in 10.0 mi West 4.6 mph - N/A   Mostly Cloudy
7:55 PM 30.2 °F 25.4 °F 19.4 °F 64% 30.16 in 10.0 mi West 4.6 mph - N/A   Mostly Cloudy
8:15 PM 30.2 °F 26.7 °F 19.4 °F 64% 30.16 in 10.0 mi West 3.5 mph - N/A   Overcast
8:35 PM 30.2 °F 22.6 °F 17.6 °F 60% 30.16 in 10.0 mi WNW 8.1 mph - N/A   Overcast
8:55 PM 30.2 °F 21.9 °F 14.0 °F 51% 30.16 in 10.0 mi WNW 9.2 mph 17.3 mph N/A   Overcast
9:15 PM 30.2 °F 21.3 °F 14.0 °F 51% 30.16 in 10.0 mi WNW 10.4 mph 17.3 mph N/A   Overcast
9:35 PM 30.2 °F 21.9 °F 14.0 °F 51% 30.16 in 10.0 mi West 9.2 mph - N/A   Overcast
9:55 PM 28.4 °F 18.5 °F 14.0 °F 55% 30.16 in 10.0 mi WNW 11.5 mph 16.1 mph N/A   Mostly Cloudy
10:15 PM 28.4 °F 19.1 °F 14.0 °F 55% 30.15 in 10.0 mi West 10.4 mph - N/A   Mostly Cloudy
10:35 PM 26.6 °F 19.1 °F 14.0 °F 59% 30.15 in 10.0 mi West 6.9 mph - N/A   Scattered Clouds
10:55 PM 26.6 °F 18.2 °F 15.8 °F 64% 30.15 in 10.0 mi West 8.1 mph - N/A   Scattered Clouds
11:15 PM 26.6 °F 17.5 °F 17.6 °F 69% 30.14 in 10.0 mi West 9.2 mph - N/A   Scattered Clouds
11:35 PM 26.6 °F 16.2 °F 17.6 °F 69% 30.14 in 10.0 mi West 11.5 mph - N/A   Mostly Cloudy
11:55 PM 26.6 °F 17.5 °F 19.4 °F 74% 30.14 in 10.0 mi West 9.2 mph - N/A   Overcast